Weather History for Somerset, KY

Change the Weather History Date:

Sunday, February 3, 2013

  Actual Average Record
Temperature  
Mean Temperature 32 °F -  
Max Temperature 33 °F 47 °F 62 °F (2008)
Min Temperature 28 °F 27 °F 12 °F (2007)
Degree Days  
Heating Degree Days 34    
Moisture  
Dew Point 29 °F    
Average Humidity 87    
Maximum Humidity 100    
Minimum Humidity 69    
Precipitation  
Precipitation 0.01 in - - ()
Sea Level Pressure  
Sea Level Pressure 30.07 in    
Wind  
Wind Speed 7 mph (West)    
Max Wind Speed 17 mph    
Max Gust Speed 25 mph    
Visibility 8 miles    
Events Rain , Snow    
Averages and records for this station are not official NWS values.
T = Trace of Precipitation, MM = Missing Value Source: NWS Daily Summary

Daily Weather History Graph

Daily Weather History Graph

Search for Another Location

Airport:

Trip Planner

Search our weather history database for the weather conditions in past years. The results will help you decide how hot, cold, wet, or windy it might be!

Date:

Astronomy

Feb. 03, 2013 Rise Set
Actual Time 7:39 AM EST 6:05 PM EST
Civil Twilight 7:11 AM EST 6:33 PM EST
Nautical Twilight 6:40 AM EST 7:04 PM EST
Astronomical Twilight 6:10 AM EST 7:34 PM EST
Moon 1:05 AM EST (2/3) 11:43 AM EST (2/3)
Length of Visible Light 11h 21m
Length of Day
10h 26m
Waning Gibbous, 49% of the Moon is Illuminated
Feb 3
Waning Gibbous
Feb 10
New
Feb 17
First Quarter
Feb 25
Full
Mar 4
Last Quarter

Hourly Weather History & Observations

Time (EST) Temp. Windchill Dew Point Humidity Pressure Visibility Wind Dir Wind Speed Gust Speed Precip Events Conditions
12:15 AM 33.8 °F 26.4 °F 30.2 °F 87% 30.09 in 10.0 mi West 9.2 mph - N/A   Overcast
12:35 AM 33.8 °F 27.0 °F 30.2 °F 87% 30.08 in 10.0 mi West 8.1 mph - N/A   Mostly Cloudy
12:55 AM 33.8 °F 27.0 °F 30.2 °F 87% 30.07 in 10.0 mi West 8.1 mph - N/A   Mostly Cloudy
1:15 AM 33.8 °F 27.0 °F 30.2 °F 87% 30.07 in 10.0 mi WSW 8.1 mph - N/A   Scattered Clouds
1:35 AM 33.8 °F 28.6 °F 30.2 °F 87% 30.06 in 10.0 mi WSW 5.8 mph - N/A   Mostly Cloudy
1:55 AM 33.8 °F 27.0 °F 30.2 °F 87% 30.06 in 10.0 mi WSW 8.1 mph - N/A   Overcast
2:15 AM 33.8 °F 27.0 °F 30.2 °F 87% 30.06 in 10.0 mi West 8.1 mph - N/A   Overcast
2:35 AM 33.8 °F 26.4 °F 30.2 °F 87% 30.06 in 10.0 mi West 9.2 mph - N/A   Overcast
2:55 AM 32.0 °F 24.2 °F 30.2 °F 93% 30.05 in 10.0 mi West 9.2 mph - N/A   Overcast
3:15 AM 33.8 °F 29.6 °F 28.4 °F 81% 30.05 in 10.0 mi WSW 4.6 mph - N/A   Overcast
3:35 AM 32.0 °F 28.7 °F 30.2 °F 93% 30.03 in 10.0 mi WSW 3.5 mph - N/A   Overcast
3:55 AM 32.0 °F 26.4 °F 30.2 °F 93% 30.03 in 10.0 mi WSW 5.8 mph - N/A   Overcast
4:15 AM 32.0 °F 27.5 °F 30.2 °F 93% 30.02 in 10.0 mi WSW 4.6 mph - N/A   Overcast
4:55 AM 32.0 °F 24.2 °F 30.2 °F 93% 30.00 in 10.0 mi WSW 9.2 mph - N/A   Overcast
5:15 AM 32.0 °F 25.6 °F 28.4 °F 87% 30.00 in 10.0 mi West 6.9 mph - N/A   Overcast
5:35 AM 32.0 °F 25.6 °F 28.4 °F 87% 29.99 in 10.0 mi WSW 6.9 mph - N/A   Overcast
5:55 AM 33.8 °F 27.7 °F 28.4 °F 81% 29.99 in 7.0 mi WSW 6.9 mph - N/A Snow Light Snow
6:15 AM 32.0 °F 26.4 °F 30.2 °F 93% 29.99 in 2.5 mi WSW 5.8 mph - N/A Snow Light Snow
6:35 AM 32.0 °F 25.6 °F 32.0 °F 100% 29.98 in 2.5 mi WSW 6.9 mph - N/A Snow Light Snow
6:55 AM 32.0 °F 27.5 °F 32.0 °F 100% 29.98 in 4.0 mi WSW 4.6 mph - N/A Snow Light Snow
7:15 AM 32.0 °F 27.5 °F 32.0 °F 100% 29.98 in 2.5 mi WSW 4.6 mph - N/A Snow Light Snow
7:35 AM 32.0 °F 24.8 °F 32.0 °F 100% 29.98 in 1.8 mi West 8.1 mph - N/A Snow Light Snow
7:55 AM 32.0 °F 26.4 °F 32.0 °F 100% 29.98 in 1.5 mi West 5.8 mph - N/A Snow Light Snow
8:15 AM 32.0 °F 27.5 °F 32.0 °F 100% 29.98 in 2.5 mi WSW 4.6 mph - N/A Snow Light Snow
8:35 AM 32.0 °F 26.4 °F 32.0 °F 100% 29.98 in 2.5 mi WSW 5.8 mph - N/A Snow Light Snow
8:55 AM 32.0 °F 27.5 °F 32.0 °F 100% 29.98 in 1.5 mi WSW 4.6 mph - N/A Snow Light Snow
9:15 AM 32.0 °F 27.5 °F 32.0 °F 100% 29.99 in 1.8 mi WSW 4.6 mph - N/A Snow Light Snow
9:35 AM 32.0 °F 26.4 °F 32.0 °F 100% 29.99 in 4.0 mi West 5.8 mph - 0.01 in Snow Light Snow
9:55 AM 32.0 °F 26.4 °F 32.0 °F 100% 29.99 in 1.8 mi West 5.8 mph - 0.01 in Snow Light Snow
10:15 AM 32.0 °F 23.0 °F 32.0 °F 100% 30.00 in 5.0 mi West 11.5 mph - N/A   Overcast
10:35 AM 32.0 °F 24.8 °F 32.0 °F 100% 30.01 in 2.5 mi West 8.1 mph - N/A Snow Light Snow
10:55 AM 32.0 °F 25.6 °F 32.0 °F 100% 30.01 in 2.5 mi West 6.9 mph - N/A Snow Light Snow
11:15 AM 32.0 °F 25.6 °F 32.0 °F 100% 30.01 in 10.0 mi West 6.9 mph - N/A   Overcast
11:35 AM 33.8 °F 27.0 °F 32.0 °F 93% 30.02 in 10.0 mi WNW 8.1 mph - N/A   Overcast
11:55 AM 33.8 °F 25.8 °F 32.0 °F 93% 30.02 in 7.0 mi WNW 10.4 mph - N/A   Light Drizzle
12:15 PM 33.8 °F 26.4 °F 32.0 °F 93% 30.02 in 10.0 mi WNW 9.2 mph - N/A   Overcast
12:35 PM 33.8 °F 27.0 °F 32.0 °F 93% 30.03 in 10.0 mi West 8.1 mph - N/A   Overcast
12:55 PM 33.8 °F 25.3 °F 32.0 °F 93% 30.03 in 10.0 mi WNW 11.5 mph - N/A   Overcast
1:15 PM 33.8 °F 24.8 °F 32.0 °F 93% 30.03 in 10.0 mi WNW 12.7 mph 17.3 mph N/A   Overcast
1:35 PM 33.8 °F 25.8 °F 32.0 °F 93% 30.04 in 10.0 mi WNW 10.4 mph 16.1 mph N/A   Overcast
1:55 PM 33.8 °F 25.8 °F 30.2 °F 87% 30.04 in 10.0 mi WNW 10.4 mph 18.4 mph N/A   Overcast
2:15 PM 33.8 °F 26.4 °F 30.2 °F 87% 30.05 in 10.0 mi WNW 9.2 mph - N/A   Overcast
2:35 PM 33.8 °F 27.0 °F 28.4 °F 81% 30.05 in 10.0 mi WNW 8.1 mph - N/A   Overcast
2:55 PM 32.0 °F 23.0 °F 28.4 °F 87% 30.06 in 10.0 mi WNW 11.5 mph 17.3 mph N/A   Overcast
3:15 PM 32.0 °F 25.6 °F 28.4 °F 87% 30.07 in 10.0 mi WNW 6.9 mph - N/A   Overcast
3:35 PM 32.0 °F 23.6 °F 28.4 °F 87% 30.08 in 10.0 mi WNW 10.4 mph 20.7 mph N/A Rain Light Rain
3:55 PM 32.0 °F 20.8 °F 28.4 °F 87% 30.10 in 7.0 mi West 17.3 mph 25.3 mph N/A   Overcast
4:15 PM 32.0 °F 22.5 °F 26.6 °F 80% 30.10 in 10.0 mi WNW 12.7 mph - N/A   Overcast
4:35 PM 32.0 °F 24.2 °F 26.6 °F 80% 30.12 in 10.0 mi WNW 9.2 mph 18.4 mph N/A   Overcast
4:55 PM 32.0 °F 23.0 °F 23.0 °F 69% 30.13 in 10.0 mi WNW 11.5 mph 17.3 mph N/A   Overcast
5:15 PM 32.0 °F 25.6 °F 24.8 °F 75% 30.13 in 10.0 mi WNW 6.9 mph - N/A   Overcast
5:35 PM 32.0 °F 26.4 °F 24.8 °F 75% 30.12 in 10.0 mi West 5.8 mph - N/A   Overcast
5:55 PM 32.0 °F 22.5 °F 24.8 °F 75% 30.13 in 10.0 mi West 12.7 mph - N/A   Overcast
6:15 PM 32.0 °F 24.2 °F 24.8 °F 75% 30.13 in 10.0 mi West 9.2 mph - N/A   Overcast
6:35 PM 32.0 °F 25.6 °F 24.8 °F 75% 30.14 in 10.0 mi West 6.9 mph - N/A   Overcast
6:55 PM 32.0 °F 27.5 °F 24.8 °F 75% 30.15 in 10.0 mi West 4.6 mph - N/A   Overcast
7:15 PM 32.0 °F 26.4 °F 24.8 °F 75% 30.16 in 10.0 mi West 5.8 mph - N/A   Overcast
7:35 PM 32.0 °F 25.6 °F 26.6 °F 80% 30.15 in 10.0 mi West 6.9 mph - N/A   Overcast
7:55 PM 32.0 °F 26.4 °F 26.6 °F 80% 30.16 in 10.0 mi West 5.8 mph - N/A   Overcast
8:15 PM 32.0 °F 26.4 °F 26.6 °F 80% 30.17 in 10.0 mi West 5.8 mph - N/A   Overcast
8:35 PM 32.0 °F 26.4 °F 26.6 °F 80% 30.16 in 10.0 mi West 5.8 mph - N/A   Overcast
8:55 PM 32.0 °F 25.6 °F 26.6 °F 80% 30.16 in 10.0 mi West 6.9 mph - N/A   Overcast
9:15 PM 32.0 °F 27.5 °F 26.6 °F 80% 30.17 in 10.0 mi West 4.6 mph - N/A   Overcast
9:35 PM 32.0 °F 27.5 °F 26.6 °F 80% 30.17 in 10.0 mi West 4.6 mph - N/A   Overcast
9:55 PM 32.0 °F 26.4 °F 26.6 °F 80% 30.17 in 10.0 mi WNW 5.8 mph - N/A   Overcast
10:15 PM 32.0 °F 28.7 °F 24.8 °F 75% 30.17 in 10.0 mi WNW 3.5 mph - N/A   Overcast
10:35 PM 32.0 °F 26.4 °F 24.8 °F 75% 30.17 in 10.0 mi NW 5.8 mph - N/A   Overcast
10:55 PM 30.2 °F 24.3 °F 23.0 °F 75% 30.16 in 10.0 mi NW 5.8 mph - N/A   Scattered Clouds
11:15 PM 30.2 °F - 23.0 °F 75% 30.16 in 10.0 mi Calm Calm - N/A   Clear
11:35 PM 30.2 °F - 21.2 °F 69% 30.15 in 10.0 mi Calm Calm - N/A   Clear
11:55 PM 28.4 °F - 23.0 °F 80% 30.15 in 10.0 mi Calm Calm - N/A   Clear